Wind_Speed
17 18 19 19 19 19 19 19 19 20 20 20 20 21 21 21 22 23 23 24 25 26 27 27 27 28 30 31 32 33 34 34 35 35 36 37 37 38
19 19 20 20 21 21 21 21 21 21 22 23 23 23 23 24 24 24 25 26 27 28 29 30 31 31 32 34 35 36 36 37 38 38 38 39 40 40
19 20 21 21 21 22 23 22 22 23 23 24 25 26 26 26 26 27 28 29 29 30 31 33 33 34 35 36 37 37 37 38 39 40 41 42 43 44
20 21 22 22 22 23 24 24 24 24 25 26 27 27 27 28 29 29 30 31 32 33 34 35 35 36 37 37 37 38 39 40 41 42 43 44 45 45
21 22 23 24 24 24 25 26 26 26 27 27 27 28 29 31 31 32 33 33 34 34 35 36 37 38 38 38 39 40 41 41 42 42 43 44 46 47
22 23 24 26 26 26 27 27 28 28 28 28 29 30 31 31 32 33 34 34 35 36 37 37 38 38 38 39 40 40 41 42 44 45 46 47 48 49
24 25 25 26 26 27 28 28 29 29 29 30 30 31 32 33 33 34 35 36 37 37 37 37 38 39 39 40 41 42 43 45 46 47 48 49 49 50
26 26 26 26 27 27 27 28 28 29 29 30 31 32 32 33 33 34 35 36 36 36 37 38 39 40 41 42 43 44 45 46 47 48 48 49 50 51
27 28 27 28 28 27 27 27 28 29 30 30 31 32 32 32 33 33 34 35 36 37 39 39 40 41 43 44 44 45 46 46 47 48 48 49 49 50
26 27 28 29 30 29 29 29 28 28 29 30 31 32 32 33 33 33 34 35 37 38 39 41 42 43 44 45 45 45 45 46 46 47 48 49 48 48
27 28 29 29 29 29 29 28 28 29 29 30 30 31 31 32 33 35 35 37 38 39 40 41 42 43 43 44 44 45 45 45 46 46 47 46 46 46
27 27 27 28 29 29 28 28 29 29 30 30 32 32 33 34 35 36 37 38 39 40 40 41 42 42 43 44 44 43 43 43 44 45 45 45 44 45
26 27 28 28 29 28 28 29 29 29 31 32 33 34 35 36 36 36 37 38 39 40 40 41 41 41 42 42 42 41 41 42 42 43 43 43 43 44
27 28 28 28 29 29 29 29 30 31 32 32 33 35 35 36 36 36 37 38 38 39 39 40 40 40 40 40 40 40 40 40 41 41 41 42 42 42
29 29 28 29 29 30 30 31 32 32 33 33 34 35 35 35 35 36 36 37 37 38 38 39 39 39 39 39 39 39 39 39 40 40 40 40 40 40
30 29 30 30 30 30 30 31 32 33 33 33 34 34 34 34 35 35 36 36 37 37 38 38 37 37 37 38 38 38 38 38 38 38 38 39 39 38
30 30 30 30 30 30 31 32 32 32 32 33 32 33 34 34 35 36 36 36 37 37 37 37 37 36 36 37 37 37 37 37 37 37 37 37 37 37
30 30 30 30 31 31 31 31 31 31 32 32 33 33 34 34 35 35 35 36 37 37 36 36 36 36 36 35 36 35 35 35 35 35 35 35 35 35
30 30 30 30 30 30 30 30 31 32 33 33 34 35 35 35 35 35 35 35 36 36 35 35 35 35 35 34 34 34 34 34 34 34 33 33 33 33
30 31 31 31 30 31 31 32 33 33 34 35 35 35 35 34 34 34 34 34 35 35 34 34 34 34 33 33 33 33 33 33 33 32 32 32 32 32
31 30 30 30 31 32 33 33 34 34 35 35 35 35 34 33 33 33 33 34 34 34 34 33 33 32 32 31 31 32 32 32 32 32 31 31 31 31
29 29 30 30 31 32 33 33 34 34 35 34 34 34 33 33 33 33 34 34 34 33 33 32 31 31 30 31 31 31 31 31 31 32 32 32 32 32
29 30 30 31 31 31 32 33 34 34 34 34 34 33 33 33 33 33 34 34 33 32 31 31 30 30 29 30 31 31 30 30 30 30 31 32 33 33
Wind_Direction
256 257 257 257 259 260 261 262 264 265 266 268 271 273 274 275 278 280 281 283 285 285 284 285 285 286 286 286 286 285 285 285 285 285 285 285 284 284
259 260 259 259 260 261 261 262 263 265 266 268 270 273 274 276 277 279 280 281 282 282 283 283 285 286 287 287 286 286 285 285 285 286 286 285 285 284
261 262 261 262 263 263 262 262 264 265 266 268 270 271 273 275 276 277 278 279 280 282 283 285 286 287 287 288 287 287 286 286 287 287 287 287 286 286
263 264 262 263 265 264 263 263 264 265 267 269 271 272 272 273 275 277 279 279 281 282 284 285 286 287 288 288 288 288 288 289 289 288 289 289 288 287
264 264 264 265 267 266 265 265 265 266 268 270 272 273 274 275 276 278 280 280 281 283 285 285 286 288 288 288 288 289 290 290 291 291 291 291 290 290
265 263 266 268 268 268 269 269 268 268 268 270 274 275 277 277 279 280 282 283 283 284 285 286 287 288 288 288 290 291 291 292 292 292 292 292 292 292
269 268 269 270 269 270 270 271 271 271 271 273 275 277 279 280 280 281 283 284 285 286 287 288 289 289 289 290 290 291 292 293 293 293 294 295 295 295
271 272 271 271 271 272 272 272 272 272 274 275 277 278 280 281 281 282 285 286 288 289 289 289 290 290 290 292 293 293 294 295 295 296 297 297 297 297
272 272 272 273 275 275 274 273 273 274 275 277 278 280 282 282 284 287 288 289 290 290 291 291 292 294 294 295 295 295 297 298 299 300 300 300 300 300
272 271 272 274 278 278 277 276 275 277 278 280 282 283 284 285 286 287 289 290 291 292 293 293 295 296 296 297 297 298 299 300 301 302 302 302 302 302
276 275 274 277 278 278 279 279 279 279 280 279 282 285 287 288 289 289 290 292 293 293 294 296 297 298 299 300 300 300 300 301 302 303 303 303 303 303
278 278 278 278 277 277 278 280 280 280 280 281 284 286 288 289 290 290 292 293 295 295 296 298 299 300 301 301 302 303 303 304 305 304 304 305 305 306
278 279 279 278 278 279 279 280 280 281 284 285 286 288 289 290 291 292 293 295 296 297 299 300 300 301 302 302 303 304 305 305 306 306 306 307 308 308
278 279 281 280 279 278 279 280 281 282 285 286 288 290 291 291 293 295 296 296 298 299 300 301 301 302 303 304 304 305 305 307 307 308 309 310 310 310
278 279 280 281 281 279 279 280 282 284 286 288 289 290 291 292 295 297 297 298 299 300 301 301 302 303 304 305 306 306 307 309 309 310 310 311 312 312
278 279 280 281 280 280 281 281 282 285 287 289 291 292 293 295 297 298 299 299 301 302 302 302 303 304 305 306 306 308 309 310 311 312 312 312 313 314
278 279 280 279 280 281 281 281 283 286 287 288 291 293 295 296 297 298 299 300 300 301 303 303 304 306 307 308 308 309 310 311 312 312 313 314 315 316
278 279 280 280 279 281 282 284 285 287 289 290 293 294 296 297 297 298 299 300 301 302 303 304 305 306 307 308 308 310 311 313 313 314 314 315 316 317
277 278 279 281 281 282 284 285 287 289 290 292 293 295 296 296 297 298 300 301 302 303 304 304 306 307 307 308 310 310 312 313 314 315 316 317 317 318
278 279 279 280 281 283 284 286 288 289 291 293 294 295 296 296 297 298 300 301 302 303 305 305 306 307 308 309 310 311 312 313 314 315 316 317 319 320
277 277 279 280 281 283 285 287 289 290 292 293 293 293 294 296 297 298 300 301 302 303 304 305 305 307 308 310 311 312 312 313 314 315 316 317 319 320
277 278 280 281 283 284 286 288 289 291 292 292 293 294 294 296 297 298 298 300 301 302 303 304 305 306 308 310 311 311 312 313 315 316 317 319 320 321
277 278 280 282 284 285 287 288 289 291 291 291 292 293 294 295 297 298 298 299 300 301 302 303 304 305 307 309 310 310 311 313 314 315 317 319 321 322
Height
5888 5889 5889 5889 5890 5890 5890 5890 5890 5890 5890 5890 5889 5889 5888 5887 5886 5885 5884 5883 5882 5881 5879 5877 5876 5874 5873 5871 5869 5867 5865 5863 5861 5859 5857 5854 5852 5850
5884 5885 5885 5885 5885 5885 5885 5885 5886 5886 5885 5885 5884 5883 5883 5882 5881 5880 5879 5877 5876 5874 5872 5871 5869 5867 5865 5863 5861 5859 5857 5854 5852 5850 5847 5845 5842 5840
5880 5880 5880 5880 5880 5880 5880 5880 5880 5880 5880 5879 5878 5878 5877 5876 5875 5874 5873 5871 5869 5867 5865 5863 5862 5859 5857 5855 5852 5850 5847 5845 5842 5840 5837 5834 5832 5829
5875 5875 5875 5875 5875 5875 5874 5874 5874 5874 5874 5873 5872 5872 5871 5869 5868 5867 5865 5864 5862 5860 5858 5856 5854 5851 5849 5846 5843 5841 5838 5835 5832 5829 5826 5823 5820 5817
5869 5869 5869 5869 5869 5869 5868 5868 5868 5868 5868 5867 5866 5865 5864 5862 5861 5860 5858 5856 5854 5852 5850 5847 5845 5842 5839 5837 5834 5831 5828 5825 5822 5819 5815 5812 5808 5805
5863 5863 5863 5863 5863 5862 5862 5862 5861 5861 5860 5860 5859 5858 5856 5855 5853 5852 5850 5848 5846 5843 5841 5838 5836 5833 5830 5827 5824 5821 5818 5814 5811 5807 5803 5799 5796 5792
5858 5857 5857 5856 5856 5856 5855 5854 5854 5854 5853 5852 5851 5850 5849 5847 5845 5843 5841 5839 5836 5834 5832 5829 5826 5823 5820 5817 5814 5810 5807 5803 5799 5795 5791 5787 5782 5778
5851 5850 5850 5850 5849 5849 5848 5847 5847 5846 5845 5844 5844 5842 5841 5839 5837 5835 5833 5831 5828 5826 5823 5820 5817 5814 5810 5807 5803 5799 5795 5791 5787 5782 5778 5774 5769 5764
5844 5844 5843 5843 5842 5841 5840 5840 5839 5839 5838 5837 5836 5834 5833 5831 5829 5826 5824 5822 5819 5816 5813 5810 5806 5803 5799 5795 5791 5787 5783 5779 5774 5769 5765 5760 5755 5750
5838 5837 5837 5836 5835 5834 5833 5832 5832 5831 5830 5828 5827 5826 5824 5822 5820 5818 5815 5813 5810 5807 5803 5800 5796 5792 5788 5784 5780 5776 5771 5767 5762 5757 5752 5747 5742 5737
5831 5831 5830 5829 5828 5827 5826 5825 5824 5823 5822 5820 5819 5817 5815 5813 5811 5809 5807 5803 5800 5797 5793 5790 5785 5781 5777 5773 5769 5764 5760 5755 5751 5745 5740 5735 5730 5725
5824 5823 5823 5822 5821 5819 5819 5817 5816 5815 5814 5812 5811 5809 5807 5805 5802 5800 5797 5794 5791 5787 5783 5780 5775 5771 5767 5762 5758 5753 5749 5744 5739 5734 5729 5724 5719 5713
5817 5816 5815 5814 5813 5812 5811 5810 5808 5807 5806 5804 5802 5800 5798 5796 5793 5790 5787 5784 5781 5777 5774 5770 5765 5761 5757 5752 5747 5743 5738 5733 5728 5723 5718 5713 5708 5702
5810 5809 5808 5806 5805 5804 5803 5802 5801 5799 5797 5795 5793 5791 5789 5786 5783 5780 5777 5774 5771 5767 5763 5759 5755 5751 5747 5742 5738 5733 5728 5723 5718 5713 5708 5703 5697 5692
5802 5801 5800 5799 5797 5796 5795 5794 5792 5791 5789 5787 5784 5782 5780 5777 5774 5771 5768 5765 5761 5757 5754 5750 5746 5741 5737 5733 5728 5723 5718 5713 5708 5703 5698 5693 5687 5682
5794 5793 5792 5791 5790 5788 5787 5785 5784 5782 5780 5778 5775 5773 5771 5768 5765 5762 5758 5755 5752 5748 5744 5740 5736 5732 5727 5723 5718 5714 5709 5704 5699 5694 5689 5683 5678 5672
5786 5785 5784 5783 5781 5780 5778 5777 5775 5773 5771 5769 5767 5764 5761 5758 5756 5753 5749 5746 5742 5739 5734 5730 5726 5722 5718 5714 5709 5704 5700 5695 5690 5685 5680 5675 5669 5664
5777 5776 5775 5774 5772 5771 5770 5768 5766 5765 5762 5760 5758 5755 5752 5749 5746 5743 5740 5736 5733 5729 5725 5721 5717 5713 5709 5705 5701 5696 5691 5687 5682 5677 5672 5667 5662 5656
5769 5768 5767 5766 5764 5762 5761 5760 5758 5756 5754 5751 5749 5746 5743 5740 5737 5733 5730 5727 5724 5720 5716 5712 5708 5704 5701 5697 5692 5687 5683 5678 5674 5669 5664 5659 5654 5649
5760 5759 5758 5757 5756 5754 5753 5751 5749 5747 5745 5742 5739 5736 5733 5730 5727 5724 5721 5718 5715 5711 5707 5703 5700 5696 5692 5688 5684 5679 5675 5670 5666 5661 5657 5652 5647 5642
5751 5750 5749 5748 5747 5745 5744 5742 5740 5737 5735 5732 5730 5727 5724 5721 5718 5715 5712 5709 5706 5702 5699 5695 5691 5687 5683 5680 5676 5672 5667 5663 5658 5654 5650 5645 5641 5636
5742 5741 5740 5739 5737 5736 5734 5732 5730 5728 5725 5722 5720 5717 5715 5712 5709 5706 5703 5700 5697 5693 5690 5687 5683 5679 5676 5672 5668 5664 5660 5656 5651 5646 5641 5637 5633 5628
5733 5733 5731 5730 5728 5726 5725 5723 5720 5718 5715 5713 5711 5708 5706 5703 5700 5697 5694 5691 5688 5685 5682 5678 5675 5672 5668 5664 5661 5657 5653 5649 5645 5640 5636 5630 5626 5621